Location: Nelson
(41.2830°S, 173.2830°E)
Time: 02:27:33
(UTC+12:00)

SL-16 R/B - Pass Details

Date: 24 January 2019
Orbit: 842 x 846 km, 71.0° (Epoch: 19 April)

Event Time Altitude Azimuth Distance (km) Brightness Sun altitude
Rises 22:39:02 0° 322° (NW) 3,402 5.3 -16.5°
Reaches altitude 10° 22:41:32 10° 317° (NW) 2,475 4.6 -16.9°
Maximum altitude 22:47:03 50° 241° (WSW) 1,080 3.1 -17.6°
Drops below altitude 10° 22:52:39 10° 166° (SSE) 2,502 5.1 -18.3°
Sets 22:55:12 0° 160° (SSE) 3,443 5.8 -18.6°
